Regional Weather Roundup
Issued by NWS Sioux Falls, SD

Home | Current Version | Previous Version | Text Only | Print | Product List | Glossary On
Versions: 1 2 3 4 5 6 7 8 9 10 11 12 13 14 15 16 17 18 19 20 21 22 23 24 25 26 27 28 29 30 31 32 33 34 35 36 37 38 39 40 41 42 43 44 45 46 47 48 49 50
000
ASUS43 KFSD 231110
RWRFSD

WEATHER ROUNDUP FOR SE SOUTH DAKOTA/SW MINNESOTA/NW IOWA
NATIONAL WEATHER SERVICE SIOUX FALLS SD
600 AM CDT WED APR 23 2014

NOTE: "FAIR" INDICATES FEW OR NO CLOUDS BELOW 12,000 FEET WITH NO
SIGNIFICANT WEATHER AND OR OBSTRUCTIONS TO VISIBILITY.


SDZ038>040-050-052>070-231200-
SOUTHEAST SOUTH DAKOTA

CITY           SKY/WX    TMP DP  RH WIND       PRES   REMARKS
CHAMBERLAIN      N/A     54  34  46 SE28G38   29.63F
HURON          CLOUDY    54  34  46 SE23G38   29.72S
MADISON        CLOUDY    46  39  76 SE28G37   29.83F
MITCHELL       MOCLDY    51  36  56 SE30G38   29.75F
SIOUX FALLS    LGT RAIN  50  37  61 SE22G29   29.91S
WINNER         FAIR      56  31  38 SE23G32   29.58F
YANKTON        MOCLDY    52  32  46 E15G23    29.83F
$$

MNZ071-072-080-081-089-090-097-098-231200-
SOUTHWEST MINNESOTA

CITY           SKY/WX    TMP DP  RH WIND       PRES   REMARKS
FAIRMONT       CLOUDY    45  30  57 SE13      30.04R
JACKSON        CLOUDY    46  30  53 SE16      29.99F
LUVERNE        LGT RAIN  50  36  57 SE18G26   29.94F
MARSHALL       CLOUDY    46  34  61 SE16      29.94F
MONTEVIDEO     CLOUDY    43  37  81 S15       30.00R
PIPESTONE      RAIN      48  37  66 SE15G22   29.93F
REDWOOD FALLS  LGT RAIN  44  36  73 SE13      30.01R
TRACY          CLOUDY    49  33  54 SE15G22   29.96F
WINDOM         CLOUDY    46  34  61 SE12      30.00S
WORTHINGTON    CLOUDY    46  30  53 SE16      30.01R
$$

IAZ001>003-012>014-020>022-031-032-NEZ013-014-SDZ071-231200-
NORTHWEST IOWA

CITY           SKY/WX    TMP DP  RH WIND       PRES   REMARKS
CHEROKEE       MOCLDY    49  35  57 SE10      29.97R
DENISON        CLOUDY    50  34  53 SE13G21   29.96R
ESTHERVILLE    CLOUDY    46  32  58 SE16      29.99S
LE MARS        CLOUDY    50  37  62 E10G21    29.93R
ORANGE CITY    CLOUDY    52  34  50 SE10G16   29.95R
SHELDON        MOCLDY    50  34  53 SE15      29.96R
SIOUX CITY     CLOUDY    51  38  60 SE20      29.89F
SPENCER        CLOUDY    49  33  54 SE17      29.98S
STORM LAKE     CLOUDY    48  34  57 SE16      29.98R
$$

ABBREVIATIONS USED IN REMARKS
   TC - TEMPERATURE IN CELSIUS
  WCI - WIND CHILL INDEX
   HX - HEAT INDEX
  VSB - VISIBILITY




USA.gov is the U.S. government's official web portal to all federal, state and local government web resources and services.